owner,sensor,date,latitude,longitude,vertical_datum,sea_water_practical_salinity,qcFlag 
DISL,ioos:station:DISL:PPTA:1,2017-02-01T00:00:00Z,30.2791,-87.5561,1.058,35.83,1111122 
DISL,ioos:station:DISL:PPTA:1,2017-02-01T00:30:00Z,30.2791,-87.5561,1.074,36.08,1111122 
DISL,ioos:station:DISL:PPTA:1,2017-02-01T01:00:00Z,30.2791,-87.5561,1.094,36.14,1111122 
DISL,ioos:station:DISL:PPTA:1,2017-02-01T01:30:00Z,30.2791,-87.5561,1.106,36.24,1111122 
DISL,ioos:station:DISL:PPTA:1,2017-02-01T02:00:00Z,30.2791,-87.5561,1.118,36.13,1111122 
DISL,ioos:station:DISL:PPTA:1,2017-02-01T02:30:00Z,30.2791,-87.5561,1.132,36.39,1111122 
DISL,ioos:station:DISL:PPTA:1,2017-02-01T03:00:00Z,30.2791,-87.5561,1.142,36.41,1111122 
DISL,ioos:station:DISL:PPTA:1,2017-02-01T03:30:00Z,30.2791,-87.5561,1.14,36.44,1111122 
DISL,ioos:station:DISL:PPTA:1,2017-02-01T04:00:00Z,30.2791,-87.5561,1.136,36.45,1111122 
DISL,ioos:station:DISL:PPTA:1,2017-02-01T04:30:00Z,30.2791,-87.5561,1.14,36.51,1111122 
DISL,ioos:station:DISL:PPTA:1,2017-02-01T05:00:00Z,30.2791,-87.5561,1.136,36.35,1111122 
DISL,ioos:station:DISL:PPTA:1,2017-02-01T05:30:00Z,30.2791,-87.5561,1.153,36.54,1111122 
DISL,ioos:station:DISL:PPTA:1,2017-02-01T06:00:00Z,30.2791,-87.5561,1.162,36.71,1111122 
DISL,ioos:station:DISL:PPTA:1,2017-02-01T06:30:00Z,30.2791,-87.5561,1.167,36.63,1111122 
DISL,ioos:station:DISL:PPTA:1,2017-02-01T07:00:00Z,30.2791,-87.5561,1.17,36.53,1111122 
DISL,ioos:station:DISL:PPTA:1,2017-02-01T07:30:00Z,30.2791,-87.5561,1.169,36.52,1111122 
DISL,ioos:station:DISL:PPTA:1,2017-02-01T08:00:00Z,30.2791,-87.5561,1.165,36.63,1111122 
DISL,ioos:station:DISL:PPTA:1,2017-02-01T08:30:00Z,30.2791,-87.5561,1.152,36.7,1111122 
DISL,ioos:station:DISL:PPTA:1,2017-02-01T09:00:00Z,30.2791,-87.5561,1.141,36.51,1111122 
DISL,ioos:station:DISL:PPTA:1,2017-02-01T09:30:00Z,30.2791,-87.5561,1.13,36.16,1111122 
DISL,ioos:station:DISL:PPTA:1,2017-02-01T10:00:00Z,30.2791,-87.5561,1.125,36.15,1111122 
DISL,ioos:station:DISL:PPTA:1,2017-02-01T10:30:00Z,30.2791,-87.5561,1.117,35.7,1111122 
DISL,ioos:station:DISL:PPTA:1,2017-02-01T11:00:00Z,30.2791,-87.5561,1.109,35.78,1111122 
DISL,ioos:station:DISL:PPTA:1,2017-02-01T11:30:00Z,30.2791,-87.5561,1.111,35.46,1111122 
DISL,ioos:station:DISL:PPTA:1,2017-02-01T12:00:00Z,30.2791,-87.5561,1.11,30.03,1111122 
DISL,ioos:station:DISL:PPTA:1,2017-02-01T12:30:00Z,30.2791,-87.5561,1.106,28.86,1111122 
DISL,ioos:station:DISL:PPTA:1,2017-02-01T13:00:00Z,30.2791,-87.5561,1.112,26.28,1111122 
DISL,ioos:station:DISL:PPTA:1,2017-02-01T13:30:00Z,30.2791,-87.5561,1.118,25.83,1111122 
DISL,ioos:station:DISL:PPTA:1,2017-02-01T14:00:00Z,30.2791,-87.5561,1.12,26.11,1111122 
DISL,ioos:station:DISL:PPTA:1,2017-02-01T14:30:00Z,30.2791,-87.5561,1.121,26.91,1111122 
DISL,ioos:station:DISL:PPTA:1,2017-02-01T15:00:00Z,30.2791,-87.5561,1.124,28.69,1111122 
DISL,ioos:station:DISL:PPTA:1,2017-02-01T15:30:00Z,30.2791,-87.5561,1.128,23.59,1111122 
DISL,ioos:station:DISL:PPTA:1,2017-02-01T16:00:00Z,30.2791,-87.5561,1.124,24.46,1111122 
DISL,ioos:station:DISL:PPTA:1,2017-02-01T16:30:00Z,30.2791,-87.5561,1.113,25.44,1111122 
DISL,ioos:station:DISL:PPTA:1,2017-02-01T17:00:00Z,30.2791,-87.5561,1.113,26.24,1111122 
DISL,ioos:station:DISL:PPTA:1,2017-02-01T17:30:00Z,30.2791,-87.5561,1.136,23.33,1111122 
DISL,ioos:station:DISL:PPTA:1,2017-02-01T18:00:00Z,30.2791,-87.5561,1.132,24.18,1111122 
DISL,ioos:station:DISL:PPTA:1,2017-02-01T18:30:00Z,30.2791,-87.5561,1.122,33.8,1111122 
DISL,ioos:station:DISL:PPTA:1,2017-02-01T19:00:00Z,30.2791,-87.5561,1.121,32.99,1111122 
DISL,ioos:station:DISL:PPTA:1,2017-02-01T19:30:00Z,30.2791,-87.5561,1.128,34.57,1111122 
DISL,ioos:station:DISL:PPTA:1,2017-02-01T20:00:00Z,30.2791,-87.5561,1.136,35.28,1111122 
DISL,ioos:station:DISL:PPTA:1,2017-02-01T20:30:00Z,30.2791,-87.5561,1.135,34.97,1111122 
DISL,ioos:station:DISL:PPTA:1,2017-02-01T21:00:00Z,30.2791,-87.5561,1.132,35.34,1111122 
DISL,ioos:station:DISL:PPTA:1,2017-02-01T21:30:00Z,30.2791,-87.5561,1.133,35.63,1111122 
DISL,ioos:station:DISL:PPTA:1,2017-02-01T22:00:00Z,30.2791,-87.5561,1.133,35.47,1111122 
DISL,ioos:station:DISL:PPTA:1,2017-02-01T22:30:00Z,30.2791,-87.5561,1.133,35.51,1111122 
DISL,ioos:station:DISL:PPTA:1,2017-02-01T23:00:00Z,30.2791,-87.5561,1.127,35.58,1111122 
DISL,ioos:station:DISL:PPTA:1,2017-02-01T23:30:00Z,30.2791,-87.5561,1.133,32.55,1111122 
DISL,ioos:station:DISL:PPTA:1,2017-02-02T00:00:00Z,30.2791,-87.5561,1.146,32.48,1111122 
DISL,ioos:station:DISL:PPTA:1,2017-02-02T00:30:00Z,30.2791,-87.5561,1.151,31.86,1111122 
DISL,ioos:station:DISL:PPTA:1,2017-02-02T01:00:00Z,30.2791,-87.5561,1.156,33.32,1111122 
DISL,ioos:station:DISL:PPTA:1,2017-02-02T01:30:00Z,30.2791,-87.5561,1.165,32.35,1111122 
DISL,ioos:station:DISL:PPTA:1,2017-02-02T02:00:00Z,30.2791,-87.5561,1.167,29.9,1111122 
DISL,ioos:station:DISL:PPTA:1,2017-02-02T02:30:00Z,30.2791,-87.5561,1.171,30.25,1111122 
DISL,ioos:station:DISL:PPTA:1,2017-02-02T03:00:00Z,30.2791,-87.5561,1.168,29.47,1111122 
DISL,ioos:station:DISL:PPTA:1,2017-02-02T03:30:00Z,30.2791,-87.5561,1.178,30.55,1111122 
DISL,ioos:station:DISL:PPTA:1,2017-02-02T04:00:00Z,30.2791,-87.5561,1.179,28.94,1111122 
DISL,ioos:station:DISL:PPTA:1,2017-02-02T04:30:00Z,30.2791,-87.5561,1.18,29.11,1111122 
DISL,ioos:station:DISL:PPTA:1,2017-02-02T05:00:00Z,30.2791,-87.5561,1.174,27.72,1111122 
DISL,ioos:station:DISL:PPTA:1,2017-02-02T05:30:00Z,30.2791,-87.5561,1.17,27.98,1111122 
DISL,ioos:station:DISL:PPTA:1,2017-02-02T06:00:00Z,30.2791,-87.5561,1.167,25.69,1111122 
DISL,ioos:station:DISL:PPTA:1,2017-02-02T06:30:00Z,30.2791,-87.5561,1.17,23.41,1111122 
DISL,ioos:station:DISL:PPTA:1,2017-02-02T07:00:00Z,30.2791,-87.5561,1.188,22.64,1111122 
DISL,ioos:station:DISL:PPTA:1,2017-02-02T07:30:00Z,30.2791,-87.5561,1.181,23.84,1111122 
DISL,ioos:station:DISL:PPTA:1,2017-02-02T08:00:00Z,30.2791,-87.5561,1.182,21.39,1111122 
DISL,ioos:station:DISL:PPTA:1,2017-02-02T08:30:00Z,30.2791,-87.5561,1.184,20.56,1111122 
DISL,ioos:station:DISL:PPTA:1,2017-02-02T09:00:00Z,30.2791,-87.5561,1.172,24.9,1111122 
DISL,ioos:station:DISL:PPTA:1,2017-02-02T09:30:00Z,30.2791,-87.5561,1.167,16.5,1111122 
DISL,ioos:station:DISL:PPTA:1,2017-02-02T10:00:00Z,30.2791,-87.5561,1.167,13.96,1111122 
DISL,ioos:station:DISL:PPTA:1,2017-02-02T10:30:00Z,30.2791,-87.5561,1.161,15.6,1111122 
DISL,ioos:station:DISL:PPTA:1,2017-02-02T11:00:00Z,30.2791,-87.5561,1.14,29.11,1111122 
DISL,ioos:station:DISL:PPTA:1,2017-02-02T11:30:00Z,30.2791,-87.5561,1.146,22.76,1111122 
DISL,ioos:station:DISL:PPTA:1,2017-02-02T12:00:00Z,30.2791,-87.5561,1.155,20.85,1111122 
DISL,ioos:station:DISL:PPTA:1,2017-02-02T12:30:00Z,30.2791,-87.5561,1.147,25.19,1111122 
DISL,ioos:station:DISL:PPTA:1,2017-02-02T13:00:00Z,30.2791,-87.5561,1.148,24.26,1111122 
DISL,ioos:station:DISL:PPTA:1,2017-02-02T13:30:00Z,30.2791,-87.5561,1.165,18.4,1111122 
DISL,ioos:station:DISL:PPTA:1,2017-02-02T14:00:00Z,30.2791,-87.5561,1.17,15.94,1111122 
DISL,ioos:station:DISL:PPTA:1,2017-02-02T14:30:00Z,30.2791,-87.5561,1.169,14.9,1111122 
DISL,ioos:station:DISL:PPTA:1,2017-02-02T15:00:00Z,30.2791,-87.5561,1.163,13.67,1111122 
DISL,ioos:station:DISL:PPTA:1,2017-02-02T15:30:00Z,30.2791,-87.5561,1.171,14.7,1111122 
DISL,ioos:station:DISL:PPTA:1,2017-02-02T16:00:00Z,30.2791,-87.5561,1.167,13.29,1111122 
DISL,ioos:station:DISL:PPTA:1,2017-02-02T16:30:00Z,30.2791,-87.5561,1.162,14.22,1111122 
DISL,ioos:station:DISL:PPTA:1,2017-02-02T17:00:00Z,30.2791,-87.5561,1.161,22.33,1111122 
DISL,ioos:station:DISL:PPTA:1,2017-02-02T17:30:00Z,30.2791,-87.5561,1.166,26.45,1111122 
DISL,ioos:station:DISL:PPTA:1,2017-02-02T18:00:00Z,30.2791,-87.5561,1.163,30.51,1111122 
DISL,ioos:station:DISL:PPTA:1,2017-02-02T18:30:00Z,30.2791,-87.5561,1.172,34.75,1111122 
DISL,ioos:station:DISL:PPTA:1,2017-02-02T19:00:00Z,30.2791,-87.5561,1.176,35.51,1111122 
DISL,ioos:station:DISL:PPTA:1,2017-02-02T19:30:00Z,30.2791,-87.5561,1.171,35.44,1111122 
DISL,ioos:station:DISL:PPTA:1,2017-02-02T20:00:00Z,30.2791,-87.5561,1.185,35.64,1111122 
DISL,ioos:station:DISL:PPTA:1,2017-02-02T20:30:00Z,30.2791,-87.5561,1.183,35.43,1111122 
DISL,ioos:station:DISL:PPTA:1,2017-02-02T21:00:00Z,30.2791,-87.5561,1.178,35.57,1111122 
DISL,ioos:station:DISL:PPTA:1,2017-02-02T21:30:00Z,30.2791,-87.5561,1.19,35.37,1111122 
DISL,ioos:station:DISL:PPTA:1,2017-02-02T22:00:00Z,30.2791,-87.5561,1.176,35.44,1111122 
DISL,ioos:station:DISL:PPTA:1,2017-02-02T22:30:00Z,30.2791,-87.5561,1.172,34.54,1111122 
DISL,ioos:station:DISL:PPTA:1,2017-02-02T23:00:00Z,30.2791,-87.5561,1.172,34.27,1111122 
DISL,ioos:station:DISL:PPTA:1,2017-02-02T23:30:00Z,30.2791,-87.5561,1.157,33.43,1111122 
DISL,ioos:station:DISL:PPTA:1,2017-02-03T00:00:00Z,30.2791,-87.5561,1.16,32.06,1111122 
DISL,ioos:station:DISL:PPTA:1,2017-02-03T00:30:00Z,30.2791,-87.5561,1.165,25.17,1111122 
DISL,ioos:station:DISL:PPTA:1,2017-02-03T01:00:00Z,30.2791,-87.5561,1.158,33.25,1111122 
DISL,ioos:station:DISL:PPTA:1,2017-02-03T01:30:00Z,30.2791,-87.5561,1.174,31.84,1111122 
DISL,ioos:station:DISL:PPTA:1,2017-02-03T02:00:00Z,30.2791,-87.5561,1.175,27.82,1111122 
DISL,ioos:station:DISL:PPTA:1,2017-02-03T02:30:00Z,30.2791,-87.5561,1.166,28.18,1111122 
DISL,ioos:station:DISL:PPTA:1,2017-02-03T03:00:00Z,30.2791,-87.5561,1.183,24.59,1111122 
DISL,ioos:station:DISL:PPTA:1,2017-02-03T03:30:00Z,30.2791,-87.5561,1.175,25.64,1111122 
DISL,ioos:station:DISL:PPTA:1,2017-02-03T04:00:00Z,30.2791,-87.5561,1.171,19.38,1111122 
DISL,ioos:station:DISL:PPTA:1,2017-02-03T04:30:00Z,30.2791,-87.5561,1.166,18.64,1111122 
DISL,ioos:station:DISL:PPTA:1,2017-02-03T05:00:00Z,30.2791,-87.5561,1.148,15.61,1111122 
DISL,ioos:station:DISL:PPTA:1,2017-02-03T05:30:00Z,30.2791,-87.5561,1.137,20.85,1111122 
DISL,ioos:station:DISL:PPTA:1,2017-02-03T06:00:00Z,30.2791,-87.5561,1.129,20.28,1111122 
DISL,ioos:station:DISL:PPTA:1,2017-02-03T06:30:00Z,30.2791,-87.5561,1.139,19.3,1111122 
DISL,ioos:station:DISL:PPTA:1,2017-02-03T07:00:00Z,30.2791,-87.5561,1.149,16.87,1111122 
DISL,ioos:station:DISL:PPTA:1,2017-02-03T07:30:00Z,30.2791,-87.5561,1.134,21.36,1111122 
DISL,ioos:station:DISL:PPTA:1,2017-02-03T08:00:00Z,30.2791,-87.5561,1.15,16.69,1111122 
DISL,ioos:station:DISL:PPTA:1,2017-02-03T08:30:00Z,30.2791,-87.5561,1.143,16.96,1111122 
DISL,ioos:station:DISL:PPTA:1,2017-02-03T09:00:00Z,30.2791,-87.5561,1.143,15.97,1111122 
DISL,ioos:station:DISL:PPTA:1,2017-02-03T09:30:00Z,30.2791,-87.5561,1.14,14.73,1111122 
DISL,ioos:station:DISL:PPTA:1,2017-02-03T10:00:00Z,30.2791,-87.5561,1.131,15.01,1111122 
DISL,ioos:station:DISL:PPTA:1,2017-02-03T10:30:00Z,30.2791,-87.5561,1.117,14.54,1111122 
DISL,ioos:station:DISL:PPTA:1,2017-02-03T11:00:00Z,30.2791,-87.5561,1.113,15.21,1111122 
DISL,ioos:station:DISL:PPTA:1,2017-02-03T11:30:00Z,30.2791,-87.5561,1.121,13.75,1111122 
DISL,ioos:station:DISL:PPTA:1,2017-02-03T12:00:00Z,30.2791,-87.5561,1.116,13.41,1111122 
DISL,ioos:station:DISL:PPTA:1,2017-02-03T12:30:00Z,30.2791,-87.5561,1.125,13.65,1111122 
DISL,ioos:station:DISL:PPTA:1,2017-02-03T13:00:00Z,30.2791,-87.5561,1.132,13.62,1111122 
DISL,ioos:station:DISL:PPTA:1,2017-02-03T13:30:00Z,30.2791,-87.5561,1.14,14.98,1111122 
DISL,ioos:station:DISL:PPTA:1,2017-02-03T14:00:00Z,30.2791,-87.5561,1.128,15.02,1111122 
DISL,ioos:station:DISL:PPTA:1,2017-02-03T14:30:00Z,30.2791,-87.5561,1.136,25.44,1111122 
DISL,ioos:station:DISL:PPTA:1,2017-02-03T15:00:00Z,30.2791,-87.5561,1.14,25.91,1111122 
DISL,ioos:station:DISL:PPTA:1,2017-02-03T15:30:00Z,30.2791,-87.5561,1.144,32.95,1111122 
DISL,ioos:station:DISL:PPTA:1,2017-02-03T16:00:00Z,30.2791,-87.5561,1.16,34.04,1111122 
DISL,ioos:station:DISL:PPTA:1,2017-02-03T16:30:00Z,30.2791,-87.5561,1.163,34.57,1111122 
DISL,ioos:station:DISL:PPTA:1,2017-02-03T17:00:00Z,30.2791,-87.5561,1.169,34.81,1111122 
DISL,ioos:station:DISL:PPTA:1,2017-02-03T17:30:00Z,30.2791,-87.5561,1.182,34.92,1111122 
DISL,ioos:station:DISL:PPTA:1,2017-02-03T18:00:00Z,30.2791,-87.5561,1.183,34.7,1111122 
DISL,ioos:station:DISL:PPTA:1,2017-02-03T18:30:00Z,30.2791,-87.5561,1.188,34.92,1111122 
DISL,ioos:station:DISL:PPTA:1,2017-02-03T19:00:00Z,30.2791,-87.5561,1.211,34.61,1111122 
DISL,ioos:station:DISL:PPTA:1,2017-02-03T19:30:00Z,30.2791,-87.5561,1.192,34.89,1111122 
DISL,ioos:station:DISL:PPTA:1,2017-02-03T20:00:00Z,30.2791,-87.5561,1.204,34.99,1111122 
DISL,ioos:station:DISL:PPTA:1,2017-02-03T20:30:00Z,30.2791,-87.5561,1.223,34.97,1111122 
DISL,ioos:station:DISL:PPTA:1,2017-02-03T21:00:00Z,30.2791,-87.5561,1.205,35.41,1111122 
DISL,ioos:station:DISL:PPTA:1,2017-02-03T21:30:00Z,30.2791,-87.5561,1.211,34.56,1111122 
DISL,ioos:station:DISL:PPTA:1,2017-02-03T22:00:00Z,30.2791,-87.5561,1.207,35.38,1111122 
DISL,ioos:station:DISL:PPTA:1,2017-02-03T22:30:00Z,30.2791,-87.5561,1.191,32.58,1111122 
DISL,ioos:station:DISL:PPTA:1,2017-02-03T23:00:00Z,30.2791,-87.5561,1.189,17.56,1111122 
DISL,ioos:station:DISL:PPTA:1,2017-02-03T23:30:00Z,30.2791,-87.5561,1.169,32.0,1111122 
DISL,ioos:station:DISL:PPTA:1,2017-02-04T00:00:00Z,30.2791,-87.5561,1.161,30.94,1111122 
DISL,ioos:station:DISL:PPTA:1,2017-02-04T00:30:00Z,30.2791,-87.5561,1.157,25.16,1111122 
DISL,ioos:station:DISL:PPTA:1,2017-02-04T01:00:00Z,30.2791,-87.5561,1.155,25.24,1111122 
DISL,ioos:station:DISL:PPTA:1,2017-02-04T01:30:00Z,30.2791,-87.5561,1.145,22.96,1111122 
DISL,ioos:station:DISL:PPTA:1,2017-02-04T02:00:00Z,30.2791,-87.5561,1.116,23.54,1111122 
DISL,ioos:station:DISL:PPTA:1,2017-02-04T02:30:00Z,30.2791,-87.5561,1.109,24.21,1111122 
DISL,ioos:station:DISL:PPTA:1,2017-02-04T03:00:00Z,30.2791,-87.5561,1.094,25.38,1111122 
DISL,ioos:station:DISL:PPTA:1,2017-02-04T03:30:00Z,30.2791,-87.5561,1.084,21.36,1111122 
DISL,ioos:station:DISL:PPTA:1,2017-02-04T04:00:00Z,30.2791,-87.5561,1.064,19.98,1111122 
DISL,ioos:station:DISL:PPTA:1,2017-02-04T04:30:00Z,30.2791,-87.5561,1.059,21.9,1111122 
DISL,ioos:station:DISL:PPTA:1,2017-02-04T05:00:00Z,30.2791,-87.5561,1.044,19.81,1111122 
DISL,ioos:station:DISL:PPTA:1,2017-02-04T05:30:00Z,30.2791,-87.5561,1.03,18.88,1111122 
DISL,ioos:station:DISL:PPTA:1,2017-02-04T06:00:00Z,30.2791,-87.5561,1.025,20.09,1111122 
DISL,ioos:station:DISL:PPTA:1,2017-02-04T06:30:00Z,30.2791,-87.5561,1.013,13.87,1111122 
DISL,ioos:station:DISL:PPTA:1,2017-02-04T07:00:00Z,30.2791,-87.5561,1.002,14.07,1111122 
DISL,ioos:station:DISL:PPTA:1,2017-02-04T07:30:00Z,30.2791,-87.5561,1.008,14.97,1111122 
DISL,ioos:station:DISL:PPTA:1,2017-02-04T08:00:00Z,30.2791,-87.5561,1.008,12.4,1111122 
DISL,ioos:station:DISL:PPTA:1,2017-02-04T08:30:00Z,30.2791,-87.5561,1.012,12.76,1111122 
DISL,ioos:station:DISL:PPTA:1,2017-02-04T09:00:00Z,30.2791,-87.5561,1.015,12.1,1111122 
DISL,ioos:station:DISL:PPTA:1,2017-02-04T09:30:00Z,30.2791,-87.5561,1.01,11.74,1111122 
DISL,ioos:station:DISL:PPTA:1,2017-02-04T10:00:00Z,30.2791,-87.5561,1.022,10.99,1111122 
DISL,ioos:station:DISL:PPTA:1,2017-02-04T10:30:00Z,30.2791,-87.5561,1.025,11.12,1111122 
DISL,ioos:station:DISL:PPTA:1,2017-02-04T11:00:00Z,30.2791,-87.5561,1.008,14.33,1111122 
DISL,ioos:station:DISL:PPTA:1,2017-02-04T11:30:00Z,30.2791,-87.5561,1.005,10.47,1111122 
DISL,ioos:station:DISL:PPTA:1,2017-02-04T12:00:00Z,30.2791,-87.5561,1.015,10.88,1111122 
DISL,ioos:station:DISL:PPTA:1,2017-02-04T12:30:00Z,30.2791,-87.5561,1.027,9.97,1111122 
DISL,ioos:station:DISL:PPTA:1,2017-02-04T13:00:00Z,30.2791,-87.5561,1.017,10.09,1111122 
DISL,ioos:station:DISL:PPTA:1,2017-02-04T13:30:00Z,30.2791,-87.5561,1.023,9.77,1111122 
DISL,ioos:station:DISL:PPTA:1,2017-02-04T14:00:00Z,30.2791,-87.5561,1.038,13.6,1111122 
DISL,ioos:station:DISL:PPTA:1,2017-02-04T14:30:00Z,30.2791,-87.5561,1.057,23.95,1111122 
DISL,ioos:station:DISL:PPTA:1,2017-02-04T15:00:00Z,30.2791,-87.5561,1.053,32.55,1111122 
DISL,ioos:station:DISL:PPTA:1,2017-02-04T15:30:00Z,30.2791,-87.5561,1.074,35.13,1111122 
DISL,ioos:station:DISL:PPTA:1,2017-02-04T16:00:00Z,30.2791,-87.5561,1.084,35.69,1111122 
DISL,ioos:station:DISL:PPTA:1,2017-02-04T16:30:00Z,30.2791,-87.5561,1.086,35.54,1111122 
DISL,ioos:station:DISL:PPTA:1,2017-02-04T17:00:00Z,30.2791,-87.5561,1.104,35.59,1111122 
DISL,ioos:station:DISL:PPTA:1,2017-02-04T17:30:00Z,30.2791,-87.5561,1.102,35.78,1111122 
DISL,ioos:station:DISL:PPTA:1,2017-02-04T18:00:00Z,30.2791,-87.5561,1.11,36.0,1111122 
DISL,ioos:station:DISL:PPTA:1,2017-02-04T18:30:00Z,30.2791,-87.5561,1.117,36.09,1111122 
DISL,ioos:station:DISL:PPTA:1,2017-02-04T19:00:00Z,30.2791,-87.5561,1.141,36.08,1111122 
DISL,ioos:station:DISL:PPTA:1,2017-02-04T19:30:00Z,30.2791,-87.5561,1.146,36.24,1111122 
DISL,ioos:station:DISL:PPTA:1,2017-02-04T20:00:00Z,30.2791,-87.5561,1.17,36.21,1111122 
DISL,ioos:station:DISL:PPTA:1,2017-02-04T20:30:00Z,30.2791,-87.5561,1.18,36.26,1111122 
DISL,ioos:station:DISL:PPTA:1,2017-02-04T21:00:00Z,30.2791,-87.5561,1.188,36.32,1111122 
DISL,ioos:station:DISL:PPTA:1,2017-02-04T21:30:00Z,30.2791,-87.5561,1.17,36.38,1111122 
DISL,ioos:station:DISL:PPTA:1,2017-02-04T22:00:00Z,30.2791,-87.5561,1.169,36.36,1111122 
DISL,ioos:station:DISL:PPTA:1,2017-02-04T22:30:00Z,30.2791,-87.5561,1.186,35.75,1111122 
DISL,ioos:station:DISL:PPTA:1,2017-02-04T23:00:00Z,30.2791,-87.5561,1.183,35.48,1111122 
DISL,ioos:station:DISL:PPTA:1,2017-02-04T23:30:00Z,30.2791,-87.5561,1.174,35.57,1111122 
DISL,ioos:station:DISL:PPTA:1,2017-02-05T00:00:00Z,30.2791,-87.5561,1.17,35.32,1111122 
DISL,ioos:station:DISL:PPTA:1,2017-02-05T00:30:00Z,30.2791,-87.5561,1.17,34.77,1111122 
DISL,ioos:station:DISL:PPTA:1,2017-02-05T01:00:00Z,30.2791,-87.5561,1.15,33.97,1111122 
DISL,ioos:station:DISL:PPTA:1,2017-02-05T01:30:00Z,30.2791,-87.5561,1.138,33.62,1111122 
DISL,ioos:station:DISL:PPTA:1,2017-02-05T02:00:00Z,30.2791,-87.5561,1.119,33.04,1111122 
DISL,ioos:station:DISL:PPTA:1,2017-02-05T02:30:00Z,30.2791,-87.5561,1.124,30.52,1111122 
DISL,ioos:station:DISL:PPTA:1,2017-02-05T03:00:00Z,30.2791,-87.5561,1.103,30.16,1111122 
DISL,ioos:station:DISL:PPTA:1,2017-02-05T03:30:00Z,30.2791,-87.5561,1.095,32.19,1111122 
DISL,ioos:station:DISL:PPTA:1,2017-02-05T04:00:00Z,30.2791,-87.5561,1.096,26.57,1111122 
DISL,ioos:station:DISL:PPTA:1,2017-02-05T04:30:00Z,30.2791,-87.5561,1.072,29.73,1111122 
DISL,ioos:station:DISL:PPTA:1,2017-02-05T05:00:00Z,30.2791,-87.5561,1.053,31.39,1111122 
DISL,ioos:station:DISL:PPTA:1,2017-02-05T05:30:00Z,30.2791,-87.5561,1.042,29.66,1111122 
DISL,ioos:station:DISL:PPTA:1,2017-02-05T06:00:00Z,30.2791,-87.5561,1.028,27.86,1111122 
DISL,ioos:station:DISL:PPTA:1,2017-02-05T06:30:00Z,30.2791,-87.5561,1.013,31.49,1111122 
DISL,ioos:station:DISL:PPTA:1,2017-02-05T07:00:00Z,30.2791,-87.5561,1.015,30.76,1111122 
DISL,ioos:station:DISL:PPTA:1,2017-02-05T07:30:00Z,30.2791,-87.5561,1.009,24.94,1111122 
DISL,ioos:station:DISL:PPTA:1,2017-02-05T08:00:00Z,30.2791,-87.5561,1.013,21.38,1111122 
DISL,ioos:station:DISL:PPTA:1,2017-02-05T08:30:00Z,30.2791,-87.5561,1.001,23.72,1111122 
DISL,ioos:station:DISL:PPTA:1,2017-02-05T09:00:00Z,30.2791,-87.5561,0.996,23.08,1111122 
DISL,ioos:station:DISL:PPTA:1,2017-02-05T09:30:00Z,30.2791,-87.5561,1.011,20.94,1111122 
DISL,ioos:station:DISL:PPTA:1,2017-02-05T10:00:00Z,30.2791,-87.5561,1.004,26.65,1111122 
DISL,ioos:station:DISL:PPTA:1,2017-02-05T10:30:00Z,30.2791,-87.5561,1.015,23.68,1111122 
DISL,ioos:station:DISL:PPTA:1,2017-02-05T11:00:00Z,30.2791,-87.5561,1.023,19.53,1111122 
DISL,ioos:station:DISL:PPTA:1,2017-02-05T11:30:00Z,30.2791,-87.5561,1.008,23.27,1111122 
DISL,ioos:station:DISL:PPTA:1,2017-02-05T12:00:00Z,30.2791,-87.5561,1.029,19.77,1111122 
DISL,ioos:station:DISL:PPTA:1,2017-02-05T12:30:00Z,30.2791,-87.5561,1.031,18.2,1111122 
DISL,ioos:station:DISL:PPTA:1,2017-02-05T13:00:00Z,30.2791,-87.5561,1.029,19.43,1111122 
DISL,ioos:station:DISL:PPTA:1,2017-02-05T13:30:00Z,30.2791,-87.5561,1.043,25.2,1111122 
DISL,ioos:station:DISL:PPTA:1,2017-02-05T14:00:00Z,30.2791,-87.5561,1.049,31.95,1111122 
DISL,ioos:station:DISL:PPTA:1,2017-02-05T14:30:00Z,30.2791,-87.5561,1.053,32.89,1111122 
DISL,ioos:station:DISL:PPTA:1,2017-02-05T15:00:00Z,30.2791,-87.5561,1.067,32.64,1111122 
DISL,ioos:station:DISL:PPTA:1,2017-02-05T15:30:00Z,30.2791,-87.5561,1.083,32.45,1111122 
DISL,ioos:station:DISL:PPTA:1,2017-02-05T16:00:00Z,30.2791,-87.5561,1.078,32.55,1111122 
DISL,ioos:station:DISL:PPTA:1,2017-02-05T16:30:00Z,30.2791,-87.5561,1.09,32.7,1111122 
DISL,ioos:station:DISL:PPTA:1,2017-02-05T17:00:00Z,30.2791,-87.5561,1.116,32.83,1111122 
DISL,ioos:station:DISL:PPTA:1,2017-02-05T17:30:00Z,30.2791,-87.5561,1.118,32.91,1111122 
DISL,ioos:station:DISL:PPTA:1,2017-02-05T18:00:00Z,30.2791,-87.5561,1.133,32.42,1111122 
DISL,ioos:station:DISL:PPTA:1,2017-02-05T18:30:00Z,30.2791,-87.5561,1.156,31.69,1111122 
DISL,ioos:station:DISL:PPTA:1,2017-02-05T19:00:00Z,30.2791,-87.5561,1.157,31.29,1111122 
DISL,ioos:station:DISL:PPTA:1,2017-02-05T19:30:00Z,30.2791,-87.5561,1.182,31.17,1111122 
DISL,ioos:station:DISL:PPTA:1,2017-02-05T20:00:00Z,30.2791,-87.5561,1.193,31.56,1111122 
DISL,ioos:station:DISL:PPTA:1,2017-02-05T20:30:00Z,30.2791,-87.5561,1.21,31.77,1111122 
DISL,ioos:station:DISL:PPTA:1,2017-02-05T21:00:00Z,30.2791,-87.5561,1.215,31.92,1111122 
DISL,ioos:station:DISL:PPTA:1,2017-02-05T21:30:00Z,30.2791,-87.5561,1.207,31.87,1111122 
DISL,ioos:station:DISL:PPTA:1,2017-02-05T22:00:00Z,30.2791,-87.5561,1.218,31.87,1111122 
DISL,ioos:station:DISL:PPTA:1,2017-02-05T22:30:00Z,30.2791,-87.5561,1.227,32.59,1111122 
DISL,ioos:station:DISL:PPTA:1,2017-02-05T23:00:00Z,30.2791,-87.5561,1.219,32.19,1111122 
DISL,ioos:station:DISL:PPTA:1,2017-02-05T23:30:00Z,30.2791,-87.5561,1.234,32.34,1111122 
DISL,ioos:station:DISL:PPTA:1,2017-02-06T00:00:00Z,30.2791,-87.5561,1.221,32.64,1111122 
DISL,ioos:station:DISL:PPTA:1,2017-02-06T00:30:00Z,30.2791,-87.5561,1.22,32.62,1111122 
DISL,ioos:station:DISL:PPTA:1,2017-02-06T01:00:00Z,30.2791,-87.5561,1.218,32.8,1111122 
DISL,ioos:station:DISL:PPTA:1,2017-02-06T01:30:00Z,30.2791,-87.5561,1.188,33.16,1111122 
DISL,ioos:station:DISL:PPTA:1,2017-02-06T02:00:00Z,30.2791,-87.5561,1.181,32.69,1111122 
DISL,ioos:station:DISL:PPTA:1,2017-02-06T02:30:00Z,30.2791,-87.5561,1.167,29.89,1111122 
DISL,ioos:station:DISL:PPTA:1,2017-02-06T03:00:00Z,30.2791,-87.5561,1.154,29.72,1111122 
DISL,ioos:station:DISL:PPTA:1,2017-02-06T03:30:00Z,30.2791,-87.5561,1.133,31.51,1111122 
DISL,ioos:station:DISL:PPTA:1,2017-02-06T04:00:00Z,30.2791,-87.5561,1.112,27.04,1111122 
DISL,ioos:station:DISL:PPTA:1,2017-02-06T04:30:00Z,30.2791,-87.5561,1.1,28.49,1111122 
DISL,ioos:station:DISL:PPTA:1,2017-02-06T05:00:00Z,30.2791,-87.5561,1.064,29.04,1111122 
DISL,ioos:station:DISL:PPTA:1,2017-02-06T05:30:00Z,30.2791,-87.5561,1.058,29.01,1111122 
DISL,ioos:station:DISL:PPTA:1,2017-02-06T06:00:00Z,30.2791,-87.5561,1.037,28.82,1111122 
DISL,ioos:station:DISL:PPTA:1,2017-02-06T06:30:00Z,30.2791,-87.5561,1.021,28.82,1111122 
DISL,ioos:station:DISL:PPTA:1,2017-02-06T07:00:00Z,30.2791,-87.5561,1.006,27.48,1111122 
DISL,ioos:station:DISL:PPTA:1,2017-02-06T07:30:00Z,30.2791,-87.5561,0.994,29.01,1111122 
DISL,ioos:station:DISL:PPTA:1,2017-02-06T08:00:00Z,30.2791,-87.5561,0.989,28.79,1111122 
DISL,ioos:station:DISL:PPTA:1,2017-02-06T08:30:00Z,30.2791,-87.5561,0.982,26.69,1111122 
DISL,ioos:station:DISL:PPTA:1,2017-02-06T09:00:00Z,30.2791,-87.5561,0.98,22.59,1111122 
DISL,ioos:station:DISL:PPTA:1,2017-02-06T09:30:00Z,30.2791,-87.5561,0.968,20.76,1111122 
DISL,ioos:station:DISL:PPTA:1,2017-02-06T10:00:00Z,30.2791,-87.5561,0.958,20.28,1111122 
DISL,ioos:station:DISL:PPTA:1,2017-02-06T10:30:00Z,30.2791,-87.5561,0.968,20.16,1111122 
DISL,ioos:station:DISL:PPTA:1,2017-02-06T11:00:00Z,30.2791,-87.5561,0.969,22.65,1111122 
DISL,ioos:station:DISL:PPTA:1,2017-02-06T11:30:00Z,30.2791,-87.5561,0.972,23.86,1111122 
DISL,ioos:station:DISL:PPTA:1,2017-02-06T12:00:00Z,30.2791,-87.5561,0.989,24.68,1111122 
DISL,ioos:station:DISL:PPTA:1,2017-02-06T12:30:00Z,30.2791,-87.5561,1.01,17.37,1111122 
DISL,ioos:station:DISL:PPTA:1,2017-02-06T13:00:00Z,30.2791,-87.5561,1.012,21.21,1111122 
DISL,ioos:station:DISL:PPTA:1,2017-02-06T13:30:00Z,30.2791,-87.5561,1.013,20.38,1111122 
DISL,ioos:station:DISL:PPTA:1,2017-02-06T14:00:00Z,30.2791,-87.5561,1.026,18.68,1111122 